Wind_Speed
49 48 48 48 48 48 49 50 49 50 50 52 54 57 59 60 62 63 65 66 66 67 67 68 69 69 69 70 70 71 72 73 74 75 76 78 79 81
50 50 50 51 50 50 51 52 52 52 54 55 57 59 62 65 66 67 68 69 69 70 71 71 71 72 73 73 74 75 77 78 79 81 82 84 86 87
50 50 51 52 52 51 53 54 55 55 57 59 61 63 66 68 70 71 71 72 72 73 74 75 75 76 77 78 79 80 82 83 85 86 88 89 91 92
50 51 51 52 53 55 55 56 57 59 62 63 65 67 69 71 72 72 73 74 75 76 78 79 80 81 82 82 83 84 84 85 86 87 88 89 89 88
50 50 52 53 56 57 58 58 61 64 66 68 69 70 71 72 73 74 75 76 78 79 80 82 83 83 84 84 84 84 85 85 85 84 83 81 80 78
49 51 53 55 57 60 61 62 64 66 69 70 70 71 72 74 75 75 76 78 79 81 83 84 84 85 85 85 84 82 81 80 79 78 77 76 74 73
49 51 54 56 58 61 62 64 66 68 70 71 71 72 73 75 76 77 78 79 80 83 84 84 84 83 81 79 77 75 75 75 75 74 72 69 67 65
49 52 54 56 59 61 62 64 66 68 70 71 71 73 75 77 78 80 81 81 81 81 80 77 76 73 70 69 70 70 70 70 69 66 62 60 58 58
49 52 53 55 56 59 61 63 66 68 70 72 73 75 77 79 80 81 80 79 75 72 68 63 63 62 62 62 63 64 63 62 58 56 54 52 51 50
47 49 51 53 55 58 61 64 66 69 71 74 75 77 78 79 77 75 71 66 61 59 58 55 54 55 54 55 56 56 54 52 49 46 44 43 43 43
46 47 50 53 56 59 62 64 67 70 73 74 76 76 75 72 69 65 59 54 51 51 53 50 48 46 44 44 46 47 46 45 43 40 38 37 37 37
43 47 50 54 57 60 63 66 68 70 72 73 73 71 68 64 59 54 49 47 45 44 45 43 41 40 36 35 39 42 43 43 40 36 33 32 32 30
44 48 52 57 60 63 66 67 68 68 68 66 64 61 56 52 48 45 43 42 41 40 40 38 36 36 35 33 33 37 38 37 36 33 30 28 27 25
47 51 55 59 62 64 64 65 64 62 59 56 52 48 44 42 40 40 39 39 39 39 38 37 34 34 33 32 30 31 33 34 32 30 27 26 24 22
50 54 57 60 61 61 60 58 55 52 49 45 41 38 36 35 35 36 37 37 38 38 37 35 34 33 34 33 29 29 28 29 31 28 26 25 23 22
53 56 58 59 58 56 53 50 48 44 39 36 33 32 32 33 34 35 35 36 35 36 38 37 35 34 34 34 31 28 27 25 26 28 26 25 24 22
54 56 56 55 52 49 47 44 41 36 33 30 30 31 32 33 34 35 34 34 34 34 34 36 36 35 35 35 32 29 27 26 26 26 25 25 26 25
53 53 53 50 48 46 43 40 36 32 30 30 30 30 31 32 33 34 34 34 33 34 34 34 33 31 31 34 36 33 30 28 28 28 27 24 24 26
53 53 51 49 45 42 39 37 33 30 30 30 30 31 31 32 33 33 33 33 32 33 35 35 34 31 29 27 30 35 32 29 27 27 27 26 24 26
53 52 49 45 41 39 37 34 31 30 30 30 31 31 32 32 33 33 33 32 31 32 33 35 35 33 32 30 28 31 34 32 29 27 26 26 26 27
52 49 45 41 39 36 33 31 29 29 30 31 31 32 32 33 33 33 32 32 32 33 33 33 34 34 34 33 31 30 32 34 33 31 27 24 23 25
49 45 41 37 35 32 30 29 29 29 30 31 32 33 33 33 33 33 33 33 33 33 33 32 33 34 34 34 33 31 29 30 32 33 31 27 23 22
45 40 36 34 32 30 29 28 29 29 30 32 33 33 34 34 34 34 34 33 33 32 32 31 32 33 34 34 34 32 31 30 29 29 29 28 26 23
Wind_Direction
276 278 279 281 281 282 283 282 284 286 287 288 289 290 292 293 294 294 294 294 294 293 292 291 290 289 288 286 285 284 282 281 280 278 277 276 275 274
275 277 279 280 280 281 284 283 283 286 287 288 288 289 291 293 294 294 294 294 293 293 292 291 290 288 287 286 285 284 283 281 280 279 278 277 276 275
275 277 278 280 279 281 281 283 284 286 287 288 289 291 292 293 294 294 294 295 294 294 293 291 290 289 288 287 286 284 283 282 281 280 279 278 278 277
274 276 278 280 280 280 281 284 285 287 288 289 290 291 293 294 294 295 295 295 295 294 293 292 291 290 289 288 287 286 285 284 283 282 281 280 279 278
274 276 278 279 280 281 283 284 286 288 289 290 292 293 294 294 295 295 296 296 295 294 293 293 292 291 290 289 289 288 286 285 283 282 282 281 280 278
273 275 276 278 280 282 284 285 287 289 291 292 293 294 295 295 296 296 296 296 296 295 294 293 293 292 291 291 289 288 287 285 284 284 283 282 280 278
272 274 276 279 281 284 286 287 289 292 293 294 295 296 296 297 297 298 297 296 295 294 294 294 293 293 292 291 291 289 288 287 286 285 283 282 279 276
273 275 277 280 282 286 288 290 292 294 295 296 297 298 298 298 298 298 297 296 295 294 294 294 294 294 293 293 292 291 290 290 289 288 285 282 279 276
275 278 280 282 286 290 292 294 295 296 297 298 299 299 299 299 299 299 298 298 298 297 296 296 295 296 296 295 293 292 292 292 292 291 288 285 281 277
277 281 285 288 291 293 295 297 299 299 300 300 301 301 300 301 301 301 300 300 300 299 299 300 298 299 298 297 295 295 296 296 297 296 293 288 283 279
283 287 292 295 296 297 299 300 301 301 301 301 302 302 302 302 302 303 302 301 301 301 302 303 302 302 302 300 299 299 301 302 302 301 297 293 288 282
293 296 298 299 300 301 302 302 302 302 302 303 303 303 304 305 305 305 305 304 304 304 304 306 306 305 305 302 300 301 303 305 307 306 303 299 295 289
300 301 302 303 304 305 305 304 304 304 304 304 304 305 307 308 308 309 309 309 309 310 309 310 310 309 309 306 301 300 303 305 307 307 306 304 300 294
305 306 307 308 308 308 307 307 307 306 307 307 308 309 310 310 311 313 314 315 314 314 314 315 316 315 314 312 307 302 303 304 306 306 308 307 304 300
310 310 311 312 312 312 311 311 311 311 311 311 311 312 313 314 315 317 319 319 319 318 319 321 321 321 320 318 313 308 305 303 305 307 308 307 304 301
314 315 316 316 316 316 316 316 315 315 316 315 316 317 317 317 318 319 320 321 321 320 321 322 324 324 323 322 320 316 312 306 302 303 305 304 301 298
318 319 320 320 320 320 320 320 319 319 320 319 319 319 319 319 320 320 321 321 321 320 320 322 323 324 324 323 321 319 317 312 308 305 303 300 299 296
321 322 322 322 321 322 322 322 321 322 321 320 321 321 321 322 323 323 322 322 322 322 322 323 323 324 325 325 321 320 319 316 313 310 307 302 295 293
321 321 320 320 320 321 322 323 323 322 322 322 323 323 324 324 325 324 324 324 324 324 324 324 324 325 326 325 320 317 318 318 315 311 308 304 297 290
321 321 320 319 319 320 321 322 322 322 323 323 324 324 325 325 326 327 326 325 325 326 326 325 326 326 327 327 325 320 319 319 318 314 309 305 299 292
321 320 318 318 319 320 321 321 322 323 323 324 325 325 326 326 327 328 327 327 327 328 328 327 326 327 327 328 327 324 320 318 319 319 317 310 302 295
321 319 318 317 319 321 321 321 322 323 324 325 325 326 326 327 328 328 328 328 328 328 328 327 326 326 326 327 327 325 323 321 320 320 321 319 312 302
321 319 318 318 319 320 321 320 321 322 324 325 325 326 326 326 327 328 328 327 327 327 327 327 327 327 326 327 327 327 325 324 323 322 320 319 317 310
Height
5706 5705 5703 5701 5699 5697 5694 5691 5689 5686 5682 5678 5673 5669 5664 5661 5656 5652 5648 5643 5638 5632 5627 5623 5619 5615 5611 5607 5604 5600 5597 5594 5591 5589 5586 5584 5582 5580
5694 5693 5691 5689 5687 5685 5682 5678 5675 5672 5669 5665 5660 5655 5650 5645 5640 5635 5630 5625 5619 5613 5608 5603 5598 5594 5589 5585 5581 5577 5573 5570 5567 5563 5560 5557 5554 5552
5683 5681 5680 5677 5675 5672 5669 5666 5662 5659 5655 5651 5646 5640 5634 5628 5622 5616 5611 5605 5599 5592 5586 5581 5576 5571 5566 5561 5556 5552 5547 5543 5539 5535 5531 5527 5524 5521
5672 5670 5668 5665 5662 5659 5655 5652 5648 5644 5640 5636 5630 5623 5616 5610 5604 5598 5592 5585 5578 5571 5563 5557 5551 5545 5539 5533 5528 5524 5518 5513 5508 5503 5499 5496 5492 5488
5660 5659 5656 5653 5650 5646 5642 5638 5633 5629 5623 5619 5613 5606 5599 5591 5586 5579 5572 5565 5556 5548 5540 5532 5525 5517 5510 5504 5499 5494 5488 5483 5477 5473 5468 5465 5461 5458
5649 5647 5644 5641 5637 5632 5628 5623 5618 5612 5606 5601 5595 5588 5580 5572 5565 5560 5554 5544 5535 5524 5514 5506 5498 5490 5482 5476 5470 5464 5458 5453 5448 5444 5440 5437 5434 5431
5637 5635 5632 5628 5624 5619 5614 5608 5603 5596 5589 5583 5576 5569 5561 5553 5545 5538 5531 5523 5513 5500 5491 5481 5471 5464 5455 5448 5441 5435 5430 5425 5421 5417 5413 5410 5407 5404
5626 5623 5620 5615 5610 5605 5599 5593 5587 5579 5572 5565 5558 5550 5541 5532 5524 5515 5506 5499 5491 5478 5469 5460 5446 5441 5432 5425 5417 5410 5404 5399 5395 5391 5387 5384 5382 5380
5615 5611 5607 5602 5597 5591 5585 5578 5570 5561 5554 5547 5539 5529 5521 5511 5503 5493 5482 5473 5464 5452 5445 5442 5430 5423 5414 5406 5397 5390 5384 5378 5374 5370 5366 5363 5360 5357
5603 5599 5594 5589 5583 5578 5571 5563 5553 5544 5536 5527 5518 5509 5498 5488 5479 5470 5461 5453 5444 5433 5424 5423 5416 5408 5400 5389 5379 5372 5367 5362 5357 5353 5349 5345 5342 5339
5591 5587 5582 5576 5570 5564 5556 5547 5538 5527 5516 5506 5496 5486 5476 5466 5457 5450 5442 5435 5430 5421 5410 5406 5401 5394 5387 5377 5367 5359 5353 5347 5343 5339 5335 5331 5328 5325
5580 5575 5570 5563 5555 5547 5538 5529 5520 5509 5498 5486 5475 5465 5455 5446 5439 5432 5427 5421 5415 5409 5399 5394 5387 5380 5377 5369 5358 5349 5342 5336 5331 5327 5323 5319 5316 5313
5569 5562 5556 5548 5539 5529 5520 5510 5500 5490 5480 5468 5458 5448 5439 5432 5425 5419 5414 5408 5402 5395 5388 5383 5377 5369 5362 5358 5351 5341 5334 5328 5323 5318 5314 5310 5307 5304
5557 5549 5541 5532 5522 5512 5502 5491 5481 5471 5461 5452 5443 5435 5429 5422 5416 5410 5403 5397 5390 5384 5377 5371 5366 5359 5352 5346 5341 5334 5327 5321 5316 5312 5307 5303 5300 5297
5543 5535 5525 5515 5505 5494 5484 5474 5464 5455 5446 5439 5432 5426 5420 5414 5408 5402 5395 5389 5381 5374 5368 5362 5356 5350 5343 5336 5331 5326 5321 5315 5308 5305 5301 5297 5294 5291
5529 5520 5510 5499 5489 5478 5468 5459 5450 5443 5436 5430 5424 5419 5413 5407 5401 5395 5389 5382 5375 5368 5360 5353 5347 5341 5335 5328 5322 5317 5312 5308 5304 5299 5295 5291 5288 5285
5515 5505 5496 5486 5476 5466 5457 5449 5441 5434 5428 5423 5418 5412 5407 5401 5394 5388 5382 5375 5369 5362 5356 5348 5341 5334 5327 5320 5315 5310 5305 5301 5296 5292 5288 5285 5281 5278
5503 5493 5484 5475 5465 5456 5448 5440 5434 5427 5422 5417 5411 5406 5400 5394 5388 5381 5375 5368 5362 5355 5348 5342 5336 5330 5324 5315 5307 5302 5298 5293 5289 5284 5280 5277 5275 5271
5491 5482 5473 5464 5456 5448 5440 5433 5427 5421 5416 5410 5405 5399 5393 5387 5381 5375 5368 5362 5356 5349 5342 5334 5328 5323 5318 5313 5305 5295 5290 5286 5282 5278 5273 5269 5267 5263
5480 5471 5462 5454 5446 5439 5432 5426 5420 5415 5409 5404 5399 5393 5387 5381 5374 5368 5362 5355 5350 5343 5336 5328 5321 5315 5309 5304 5299 5292 5283 5277 5274 5270 5266 5262 5258 5254
5468 5459 5451 5444 5437 5430 5424 5419 5414 5409 5403 5398 5392 5386 5381 5375 5368 5362 5355 5349 5342 5336 5330 5323 5316 5309 5302 5297 5292 5286 5279 5271 5264 5260 5256 5253 5249 5245
5457 5449 5441 5435 5429 5423 5418 5413 5408 5403 5398 5392 5386 5380 5374 5368 5362 5356 5349 5343 5336 5330 5324 5318 5311 5304 5297 5290 5284 5279 5273 5267 5259 5252 5246 5242 5239 5237
5447 5440 5433 5427 5422 5417 5412 5407 5402 5397 5392 5386 5380 5374 5368 5362 5356 5349 5343 5336 5330 5325 5318 5312 5306 5299 5291 5284 5277 5271 5265 5260 5254 5248 5242 5236 5232 5228